,,Stat1,,Stat2,,Stat3,,Stat4,,Wind1,,Wind1,
time,status,PR1M_SUM,status,RH1M_AVG,status,SR1M_AVG,status,TA1M_AVG,status,W1dAve1m,status,W1sAve1m,
1999-11-10, 00:01:00,VALID,0,VALID,99.3937,VALID,0,VALID,17.0674,VALID,196,VALID,0,
1999-11-10, 00:02:00,VALID,0,VALID,99.4229,VALID,0,VALID,17.1036,VALID,203,VALID,0,
1999-11-10, 00:03:00,VALID,0,VALID,99.3047,VALID,0,VALID,17.0868,VALID,208,VALID,0,
1999-11-10, 00:04:01,VALID,0,VALID,99.2869,VALID,0,VALID,17.0676,VALID,212,VALID,0.28864,
1999-11-10, 00:05:00,VALID,0,VALID,99.2945,VALID,0,VALID,17.0415,VALID,218,VALID,0.171875,
1999-11-10, 00:06:00,VALID,0,VALID,99.2907,VALID,0.0169808,VALID,17.0516,VALID,218,VALID,0,
1999-11-10, 00:07:00,VALID,0,VALID,99.3886,VALID,-0.0169808,VALID,17.0712,VALID,218,VALID,0,
1999-11-10, 00:08:00,VALID,0,VALID,99.4395,VALID,0.0339617,VALID,17.1033,VALID,203,VALID,0,
1999-11-10, 00:09:00,VALID,0,VALID,99.2564,VALID,0,VALID,17.0323,VALID,152,VALID,0,
1999-11-10, 00:10:00,VALID,0,VALID,99.5743,VALID,0.0339617,VALID,17.1454,VALID,157,VALID,0,
1999-11-10, 00:11:00,VALID,0,VALID,99.8006,VALID,0,VALID,17.2548,VALID,160,VALID,0,
1999-11-10, 00:12:00,VALID,0,VALID,99.5908,VALID,0,VALID,17.252,VALID,156,VALID,0,
1999-11-10, 00:13:00,VALID,0,VALID,99.4687,VALID,0,VALID,17.2203,VALID,146,VALID,0,
1999-11-10, 00:14:00,VALID,0,VALID,99.1801,VALID,0,VALID,17.1486,VALID,143,VALID,0,
1999-11-10, 00:15:01,VALID,0,VALID,99.1953,VALID,0,VALID,17.1938,VALID,150,VALID,0,
1999-11-10, 00:16:00,VALID,0,VALID,99.5577,VALID,0,VALID,17.274,VALID,154,VALID,0,
1999-11-10, 00:17:00,VALID,0,VALID,99.4433,VALID,0,VALID,17.3326,VALID,173,VALID,0,
1999-11-10, 00:18:00,VALID,0,VALID,99.2424,VALID,0,VALID,17.3069,VALID,174,VALID,0,
1999-11-10, 00:19:00,VALID,0,VALID,99.409,VALID,0,VALID,17.3328,VALID,175,VALID,0,
1999-11-10, 00:20:00,VALID,0,VALID,99.6073,VALID,0.0169808,VALID,17.4,VALID,184,VALID,0,
1999-11-10, 00:21:00,VALID,0,VALID,99.7332,VALID,0,VALID,17.4877,VALID,202,VALID,0,
1999-11-10, 00:22:00,VALID,0,VALID,99.5921,VALID,0.0339617,VALID,17.5329,VALID,211,VALID,0,
1999-11-10, 00:23:00,VALID,0,VALID,99.4255,VALID,0,VALID,17.5394,VALID,218,VALID,0,
1999-11-10, 00:24:00,VALID,0,VALID,99.1216,VALID,0.0339617,VALID,17.5138,VALID,218,VALID,0,
1999-11-10, 00:25:01,VALID,0,VALID,98.8622,VALID,0.0169808,VALID,17.4485,VALID,219,VALID,0,
1999-11-10, 00:26:01,VALID,0,VALID,98.824,VALID,0,VALID,17.439,VALID,219,VALID,0,
1999-11-10, 00:27:00,VALID,0,VALID,98.9029,VALID,0,VALID,17.442,VALID,219,VALID,0,
1999-11-10, 00:28:00,VALID,0,VALID,98.9499,VALID,0.0169808,VALID,17.4814,VALID,215,VALID,0,
1999-11-10, 00:29:00,VALID,0,VALID,98.7655,VALID,0.0339617,VALID,17.4582,VALID,205,VALID,0,
1999-11-10, 00:30:00,VALID,0,VALID,98.9232,VALID,0,VALID,17.4939,VALID,202,VALID,0,
1999-11-10, 00:31:00,VALID,0,VALID,98.7325,VALID,0,VALID,17.4875,VALID,202,VALID,0,
1999-11-10, 00:32:00,VALID,0,VALID,98.5875,VALID,-0.0169808,VALID,17.4521,VALID,202,VALID,0,
1999-11-10, 00:33:00,VALID,0,VALID,98.6905,VALID,0,VALID,17.4487,VALID,202,VALID,0,
1999-11-10, 00:34:00,VALID,0,VALID,98.5532,VALID,0,VALID,17.4103,VALID,193,VALID,0,
1999-11-10, 00:35:01,VALID,0,VALID,98.604,VALID,0,VALID,17.3944,VALID,190,VALID,0,
1999-11-10, 00:36:00,VALID,0,VALID,98.9512,VALID,0,VALID,17.4459,VALID,187,VALID,0,
1999-11-10, 00:37:01,VALID,0,VALID,99.2856,VALID,0,VALID,17.52,VALID,168,VALID,0,
1999-11-10, 00:38:00,VALID,0,VALID,99.2411,VALID,0,VALID,17.562,VALID,157,VALID,0,
1999-11-10, 00:39:00,VALID,0,VALID,98.8151,VALID,0.0169808,VALID,17.478,VALID,150,VALID,0,
1999-11-10, 00:40:00,VALID,0,VALID,98.6663,VALID,0.0169808,VALID,17.3774,VALID,156,VALID,0,
1999-11-10, 00:41:00,VALID,0,VALID,99.1076,VALID,0,VALID,17.4741,VALID,157,VALID,0,
1999-11-10, 00:42:00,VALID,0,VALID,98.7871,VALID,0.0169808,VALID,17.442,VALID,185,VALID,0,
1999-11-10, 00:43:00,VALID,0,VALID,98.6892,VALID,0.0169808,VALID,17.3838,VALID,189,VALID,0,
1999-11-10, 00:44:00,VALID,0,VALID,98.6803,VALID,0.0169808,VALID,17.3713,VALID,196,VALID,0,
1999-11-10, 00:45:00,VALID,0,VALID,98.4146,VALID,0,VALID,17.2869,VALID,198,VALID,0,
1999-11-10, 00:46:00,VALID,0,VALID,98.5494,VALID,0,VALID,17.2511,VALID,189,VALID,0,
1999-11-10, 00:47:00,VALID,0,VALID,98.7732,VALID,0.0169808,VALID,17.2647,VALID,174,VALID,0,
1999-11-10, 00:48:01,VALID,0,VALID,98.5862,VALID,0.0339617,VALID,17.2031,VALID,164,VALID,0,
1999-11-10, 00:49:00,VALID,0,VALID,99.0262,VALID,-0.0849042,VALID,17.2203,VALID,156,VALID,0.302426,
1999-11-10, 00:50:00,VALID,0,VALID,98.8774,VALID,-0.0679233,VALID,17.2111,VALID,139,VALID,0.94375,
1999-11-10, 00:51:00,VALID,0,VALID,99.0224,VALID,-0.0679233,VALID,17.2233,VALID,141,VALID,1.02604,
1999-11-10, 00:52:00,VALID,0,VALID,99.4522,VALID,-0.0509425,VALID,17.3494,VALID,151,VALID,1.01028,
1999-11-10, 00:53:00,VALID,0,VALID,99.6976,VALID,-0.0509425,VALID,17.4791,VALID,156,VALID,0.745393,
1999-11-10, 00:54:00,VALID,0,VALID,99.6404,VALID,-0.0509425,VALID,17.5791,VALID,157,VALID,0.36951,
1999-11-10, 00:55:00,VALID,0,VALID,99.2411,VALID,-0.101885,VALID,17.5661,VALID,146,VALID,0.256334,
1999-11-10, 00:56:00,VALID,0,VALID,98.6066,VALID,-0.0849042,VALID,17.4821,VALID,131,VALID,0.51028,
1999-11-10, 00:57:00,VALID,0,VALID,97.9072,VALID,-0.0339617,VALID,17.3787,VALID,143,VALID,0.443164,
1999-11-10, 00:58:00,VALID,0,VALID,98.1081,VALID,-0.0509425,VALID,17.3882,VALID,132,VALID,0.668527,
1999-11-10, 00:59:00,VALID,0,VALID,98.2086,VALID,-0.0679233,VALID,17.3828,VALID,130,VALID,0.606291,
1999-11-10, 01:00:00,VALID,0,VALID,98.1335,VALID,-0.0849042,VALID,17.3436,VALID,134,VALID,0.207227,
1999-11-10, 01:01:00,VALID,0,VALID,98.5392,VALID,-0.0679233,VALID,17.3755,VALID,134,VALID,0,
1999-11-10, 01:02:00,VALID,0,VALID,98.894,VALID,-0.0849042,VALID,17.4239,VALID,134,VALID,0,
1999-11-10, 01:03:00,VALID,0,VALID,98.969,VALID,-0.0849042,VALID,17.4627,VALID,140,VALID,0,
1999-11-10, 01:04:00,VALID,0,VALID,98.9423,VALID,-0.0339617,VALID,17.4629,VALID,140,VALID,0,
1999-11-10, 01:05:00,VALID,0,VALID,99.1419,VALID,-0.0679233,VALID,17.5243,VALID,123,VALID,0,
1999-11-10, 01:06:00,VALID,0,VALID,99.1025,VALID,-0.0679233,VALID,17.553,VALID,139,VALID,0.416324,
1999-11-10, 01:07:00,VALID,0,VALID,99.2233,VALID,-0.0849042,VALID,17.6284,VALID,81,VALID,0.393555,
1999-11-10, 01:08:00,VALID,0,VALID,99.2678,VALID,-0.0509425,VALID,17.6859,VALID,77,VALID,0,
1999-11-10, 01:09:00,VALID,0,VALID,99.3517,VALID,-0.0679233,VALID,17.7764,VALID,83,VALID,0,
1999-11-10, 01:10:00,VALID,0,VALID,99.6226,VALID,-0.0509425,VALID,17.9053,VALID,49,VALID,0,
1999-11-10, 01:11:00,VALID,0,VALID,99.8108,VALID,-0.101885,VALID,18.1029,VALID,64,VALID,0,
1999-11-10, 01:12:00,VALID,0,VALID,99.8858,VALID,-0.0849042,VALID,18.2772,VALID,63,VALID,0,
1999-11-10, 01:13:00,VALID,0,VALID,99.8362,VALID,-0.118866,VALID,18.4389,VALID,114,VALID,0,
1999-11-10, 01:14:00,VALID,0,VALID,99.2093,VALID,-0.0849042,VALID,18.4264,VALID,112,VALID,0,
1999-11-10, 01:15:00,VALID,0,VALID,98.3268,VALID,-0.101885,VALID,18.3906,VALID,108,VALID,0,
1999-11-10, 01:16:00,VALID,0,VALID,97.5842,VALID,-0.0679233,VALID,18.3809,VALID,104,VALID,0,
1999-11-10, 01:17:00,VALID,0,VALID,97.162,VALID,-0.0849042,VALID,18.3451,VALID,102,VALID,0,
1999-11-10, 01:18:00,VALID,0,VALID,97.7177,VALID,-0.101885,VALID,18.3648,VALID,102,VALID,0,
1999-11-10, 01:19:00,VALID,0,VALID,97.9161,VALID,-0.0169808,VALID,18.3862,VALID,118,VALID,0,
1999-11-10, 01:20:01,VALID,0,VALID,97.2676,VALID,0.0339617,VALID,18.3343,VALID,207,VALID,0,
1999-11-10, 01:21:00,VALID,0,VALID,97.2981,VALID,0.0339617,VALID,18.3017,VALID,231,VALID,0,
1999-11-10, 01:22:00,VALID,0,VALID,96.7449,VALID,0.0509425,VALID,18.2368,VALID,234,VALID,0,
1999-11-10, 01:23:00,VALID,0,VALID,96.0608,VALID,0,VALID,18.1334,VALID,217,VALID,0,
1999-11-10, 01:24:00,VALID,0,VALID,95.715,VALID,0,VALID,18.0235,VALID,199,VALID,0,
1999-11-10, 01:25:00,VALID,0,VALID,96.5402,VALID,0.0339617,VALID,17.9169,VALID,200,VALID,0,
1999-11-10, 01:26:00,VALID,0,VALID,96.6686,VALID,0,VALID,17.8229,VALID,182,VALID,0,
1999-11-10, 01:27:00,VALID,0,VALID,96.4576,VALID,0,VALID,17.6939,VALID,168,VALID,0,
1999-11-10, 01:28:00,VALID,0,VALID,96.9624,VALID,0.0339617,VALID,17.6096,VALID,179,VALID,0,
1999-11-10, 01:29:00,VALID,0,VALID,97.143,VALID,0.0339617,VALID,17.5385,VALID,180,VALID,0,
1999-11-10, 01:30:01,VALID,0,VALID,97.3896,VALID,0.0339617,VALID,17.4773,VALID,180,VALID,0,
1999-11-10, 01:31:00,VALID,0,VALID,97.8576,VALID,0.0679233,VALID,17.4614,VALID,189,VALID,0,
1999-11-10, 01:32:00,VALID,0,VALID,98.2874,VALID,0.0169808,VALID,17.4612,VALID,192,VALID,0,
1999-11-10, 01:33:00,VALID,0,VALID,98.6536,VALID,0.0339617,VALID,17.4997,VALID,192,VALID,0,
1999-11-10, 01:34:00,VALID,0,VALID,98.7719,VALID,0.0169808,VALID,17.49,VALID,192,VALID,0,
1999-11-10, 01:35:00,VALID,0,VALID,98.9792,VALID,0.0169808,VALID,17.5422,VALID,192,VALID,0,
1999-11-10, 01:36:00,VALID,0,VALID,99.1,VALID,0.0339617,VALID,17.5678,VALID,192,VALID,0,
1999-11-10, 01:37:00,VALID,0,VALID,99.0135,VALID,0.0169808,VALID,17.5683,VALID,192,VALID,0,
1999-11-10, 01:38:00,VALID,0,VALID,99.1813,VALID,0.0509425,VALID,17.584,VALID,187,VALID,0,
1999-11-10, 01:39:00,VALID,0,VALID,99.5832,VALID,0.0509425,VALID,17.7165,VALID,187,VALID,0,
1999-11-10, 01:40:00,VALID,0,VALID,99.7141,VALID,0.0509425,VALID,17.8134,VALID,187,VALID,0,
1999-11-10, 01:41:00,VALID,0,VALID,99.4611,VALID,0,VALID,17.8169,VALID,193,VALID,0,
1999-11-10, 01:42:00,VALID,0,VALID,98.9181,VALID,0.0169808,VALID,17.7005,VALID,215,VALID,0,
1999-11-10, 01:43:00,VALID,0,VALID,99.1852,VALID,0.0169808,VALID,17.6908,VALID,217,VALID,0,
1999-11-10, 01:44:00,VALID,0,VALID,99.3276,VALID,0.0169808,VALID,17.7165,VALID,215,VALID,0,
1999-11-10, 01:45:00,VALID,0,VALID,99.2119,VALID,0.0339617,VALID,17.7264,VALID,205,VALID,0,
1999-11-10, 01:46:00,VALID,0,VALID,99.2525,VALID,0.0169808,VALID,17.7202,VALID,205,VALID,0,
1999-11-10, 01:47:00,VALID,0,VALID,99.1292,VALID,0.0169808,VALID,17.6906,VALID,205,VALID,0,
1999-11-10, 01:48:00,VALID,0,VALID,98.777,VALID,0.0169808,VALID,17.6001,VALID,207,VALID,0,
1999-11-10, 01:49:00,VALID,0,VALID,98.604,VALID,-0.0169808,VALID,17.5172,VALID,222,VALID,0,
1999-11-10, 01:50:00,VALID,0,VALID,98.3777,VALID,-0.0849042,VALID,17.4304,VALID,228,VALID,0,
1999-11-10, 01:51:00,VALID,0,VALID,98.2963,VALID,-0.0849042,VALID,17.3528,VALID,228,VALID,0,
1999-11-10, 01:52:00,VALID,0,VALID,98.2251,VALID,-0.101885,VALID,17.2753,VALID,226,VALID,0,
1999-11-10, 01:53:00,VALID,0,VALID,98.2734,VALID,-0.0849042,VALID,17.2205,VALID,230,VALID,0,
1999-11-10, 01:54:00,VALID,0,VALID,98.2073,VALID,-0.0849042,VALID,17.1497,VALID,219,VALID,0,
1999-11-10, 01:55:00,VALID,0,VALID,98.3077,VALID,-0.101885,VALID,17.0941,VALID,224,VALID,0.420608,
1999-11-10, 01:56:00,VALID,0,VALID,98.4781,VALID,-0.101885,VALID,17.0616,VALID,212,VALID,0.335938,
1999-11-10, 01:57:00,VALID,0,VALID,98.7337,VALID,-0.0849042,VALID,17.0585,VALID,203,VALID,0,
1999-11-10, 01:58:00,VALID,0,VALID,98.6256,VALID,-0.101885,VALID,17.004,VALID,181,VALID,0,
1999-11-10, 01:59:00,VALID,0,VALID,98.5405,VALID,-0.0849042,VALID,16.9263,VALID,165,VALID,0,
1999-11-10, 02:00:00,VALID,0,VALID,99.0682,VALID,-0.0849042,VALID,16.9586,VALID,165,VALID,0,
1999-11-10, 02:01:00,VALID,0,VALID,99.6556,VALID,-0.0679233,VALID,17.1139,VALID,169,VALID,0,
1999-11-10, 02:02:00,VALID,0,VALID,99.6277,VALID,-0.0679233,VALID,17.1617,VALID,176,VALID,0,
1999-11-10, 02:03:00,VALID,0,VALID,99.5399,VALID,-0.0849042,VALID,17.149,VALID,176,VALID,0,
1999-11-10, 02:04:00,VALID,0,VALID,99.7485,VALID,-0.0849042,VALID,17.1753,VALID,174,VALID,0,
1999-11-10, 02:05:00,VALID,0,VALID,99.8566,VALID,-0.101885,VALID,17.2466,VALID,171,VALID,0,
1999-11-10, 02:06:00,VALID,0,VALID,99.8795,VALID,-0.0679233,VALID,17.2949,VALID,166,VALID,0,
1999-11-10, 02:07:00,VALID,0,VALID,99.9023,VALID,-0.0849042,VALID,17.3076,VALID,164,VALID,0,
1999-11-10, 02:08:00,VALID,0,VALID,99.8756,VALID,-0.0679233,VALID,17.3408,VALID,159,VALID,0,
1999-11-10, 02:09:00,VALID,0,VALID,99.6785,VALID,-0.0849042,VALID,17.2468,VALID,156,VALID,0,
1999-11-10, 02:10:00,VALID,0,VALID,99.3886,VALID,-0.0679233,VALID,17.0883,VALID,152,VALID,0,
1999-11-10, 02:11:00,VALID,0,VALID,99.105,VALID,-0.0849042,VALID,16.9396,VALID,152,VALID,0,
1999-11-10, 02:12:00,VALID,0,VALID,99.2805,VALID,-0.101885,VALID,16.9521,VALID,156,VALID,0,
1999-11-10, 02:13:00,VALID,0,VALID,99.3937,VALID,-0.101885,VALID,16.9558,VALID,171,VALID,0,
1999-11-10, 02:14:00,VALID,0,VALID,99.4166,VALID,-0.0679233,VALID,16.962,VALID,210,VALID,0,
1999-11-10, 02:15:01,VALID,0,VALID,99.3377,VALID,-0.0679233,VALID,16.9166,VALID,230,VALID,0.553632,
1999-11-10, 02:16:00,VALID,0,VALID,99.4268,VALID,-0.0849042,VALID,16.8978,VALID,225,VALID,0.865337,
1999-11-10, 02:17:00,VALID,0,VALID,99.4547,VALID,-0.0849042,VALID,16.9011,VALID,212,VALID,0.542383,
1999-11-10, 02:18:00,VALID,0,VALID,99.4611,VALID,-0.101885,VALID,16.8683,VALID,213,VALID,0.485938,
1999-11-10, 02:19:00,VALID,0,VALID,99.4585,VALID,-0.0339617,VALID,16.8612,VALID,214,VALID,0.532689,
1999-11-10, 02:20:00,VALID,0,VALID,99.4573,VALID,0.0169808,VALID,16.8283,VALID,218,VALID,0.32793,
1999-11-10, 02:21:00,VALID,0,VALID,99.545,VALID,0.0169808,VALID,16.8315,VALID,215,VALID,0.169271,
1999-11-10, 02:22:00,VALID,0,VALID,99.7141,VALID,0,VALID,16.8604,VALID,211,VALID,0,
1999-11-10, 02:23:00,VALID,0,VALID,99.8375,VALID,0.0169808,VALID,16.9056,VALID,210,VALID,0,
1999-11-10, 02:24:00,VALID,0,VALID,99.8858,VALID,0.0169808,VALID,16.9442,VALID,171,VALID,0,
1999-11-10, 02:25:01,VALID,0,VALID,99.9746,VALID,0.0339617,VALID,17.0092,VALID,169,VALID,0,
1999-11-10, 02:26:01,VALID,0,VALID,99.988,VALID,0,VALID,17.0376,VALID,169,VALID,0,
1999-11-10, 02:27:00,VALID,0,VALID,99.9855,VALID,0.0169808,VALID,17.0833,VALID,169,VALID,0,
1999-11-10, 02:28:00,VALID,0,VALID,99.9914,VALID,0.0169808,VALID,17.0768,VALID,169,VALID,0,
1999-11-10, 02:29:00,VALID,0,VALID,99.9087,VALID,0,VALID,17.0842,VALID,169,VALID,0,
1999-11-10, 02:30:00,VALID,0,VALID,99.7854,VALID,0,VALID,17.0027,VALID,186,VALID,0,
1999-11-10, 02:31:00,VALID,0,VALID,99.6849,VALID,0.0339617,VALID,16.9319,VALID,209,VALID,0.00901442,
1999-11-10, 02:32:00,VALID,0,VALID,99.8334,VALID,0.0339617,VALID,16.8897,VALID,223,VALID,0.578125,
1999-11-10, 02:33:00,VALID,0,VALID,100,VALID,0,VALID,16.9702,VALID,214,VALID,0.684295,
1999-11-10, 02:34:00,VALID,0,VALID,100,VALID,0.0339617,VALID,17.048,VALID,212,VALID,0.509291,
1999-11-10, 02:35:00,VALID,0,VALID,100,VALID,0.0509425,VALID,17.1029,VALID,213,VALID,0.209882,
1999-11-10, 02:36:00,VALID,0,VALID,100,VALID,0.0169808,VALID,17.1223,VALID,213,VALID,0,
1999-11-10, 02:37:01,VALID,0,VALID,99.9977,VALID,0.0339617,VALID,17.1061,VALID,205,VALID,0,
1999-11-10, 02:38:00,VALID,0,VALID,99.9967,VALID,0.0509425,VALID,17.0863,VALID,189,VALID,0,
1999-11-10, 02:39:00,VALID,0,VALID,99.7459,VALID,0.0169808,VALID,16.9706,VALID,166,VALID,0,
1999-11-10, 02:40:00,VALID,0,VALID,99.3734,VALID,0.0339617,VALID,16.6994,VALID,134,VALID,0,
1999-11-10, 02:41:00,VALID,0,VALID,99.3619,VALID,0.0849042,VALID,16.6023,VALID,134,VALID,0,
1999-11-10, 02:42:00,VALID,0,VALID,99.7963,VALID,0.0169808,VALID,16.7378,VALID,138,VALID,0,
1999-11-10, 02:43:00,VALID,0,VALID,100,VALID,0.0339617,VALID,16.9513,VALID,140,VALID,0,
1999-11-10, 02:44:00,VALID,0,VALID,99.9789,VALID,0,VALID,16.9024,VALID,139,VALID,0,
1999-11-10, 02:45:00,VALID,0,VALID,99.826,VALID,0.0509425,VALID,16.7669,VALID,139,VALID,0,
1999-11-10, 02:46:00,VALID,0,VALID,99.984,VALID,0,VALID,16.8386,VALID,145,VALID,0,
1999-11-10, 02:47:00,VALID,0,VALID,100,VALID,0,VALID,17.071,VALID,159,VALID,0,
1999-11-10, 02:48:00,VALID,0,VALID,100,VALID,0,VALID,17.2942,VALID,162,VALID,0,
1999-11-10, 02:49:00,VALID,0,VALID,100,VALID,0.0339617,VALID,17.3713,VALID,162,VALID,0,
1999-11-10, 02:50:00,VALID,0,VALID,100,VALID,0.0339617,VALID,17.3485,VALID,156,VALID,0,
1999-11-10, 02:51:00,VALID,0,VALID,100,VALID,0.0509425,VALID,17.1421,VALID,152,VALID,0,
1999-11-10, 02:52:00,VALID,0,VALID,100,VALID,0.0169808,VALID,17.0837,VALID,152,VALID,0,
1999-11-10, 02:53:00,VALID,0,VALID,99.9941,VALID,0.101885,VALID,16.9991,VALID,145,VALID,0,
1999-11-10, 02:54:00,VALID,0,VALID,99.9443,VALID,0.0849042,VALID,16.9121,VALID,142,VALID,0,
1999-11-10, 02:55:00,VALID,0,VALID,99.9868,VALID,0.0509425,VALID,16.906,VALID,142,VALID,0,
1999-11-10, 02:56:00,VALID,0,VALID,100,VALID,0.0679233,VALID,16.9411,VALID,142,VALID,0,
1999-11-10, 02:57:00,VALID,0,VALID,100,VALID,0.0169808,VALID,16.9125,VALID,142,VALID,0,
1999-11-10, 02:58:00,VALID,0,VALID,100,VALID,0.101885,VALID,16.9286,VALID,142,VALID,0,
1999-11-10, 02:59:01,VALID,0,VALID,100,VALID,0.0339617,VALID,16.942,VALID,142,VALID,0,
1999-11-10, 03:00:00,VALID,0,VALID,100,VALID,0.0509425,VALID,16.99,VALID,142,VALID,0,
1999-11-10, 03:01:00,VALID,0,VALID,100,VALID,0,VALID,17.0025,VALID,142,VALID,0,
1999-11-10, 03:02:00,VALID,0,VALID,100,VALID,0.0169808,VALID,17.0157,VALID,142,VALID,0,
1999-11-10, 03:03:00,VALID,0,VALID,100,VALID,0.101885,VALID,17.0219,VALID,150,VALID,0,
1999-11-10, 03:04:00,VALID,0,VALID,100,VALID,0,VALID,17.0394,VALID,167,VALID,0,
1999-11-10, 03:05:00,VALID,0,VALID,100,VALID,-0.0509425,VALID,17.0236,VALID,168,VALID,0,
1999-11-10, 03:06:00,VALID,0,VALID,100,VALID,-0.0509425,VALID,17.0137,VALID,168,VALID,0,
1999-11-10, 03:07:00,VALID,0,VALID,100,VALID,-0.0339617,VALID,17.0915,VALID,166,VALID,0,
1999-11-10, 03:08:00,VALID,0,VALID,100,VALID,-0.0679233,VALID,17.1335,VALID,164,VALID,0,
1999-11-10, 03:09:00,VALID,0,VALID,100,VALID,-0.0679233,VALID,17.1268,VALID,164,VALID,0,
1999-11-10, 03:10:01,VALID,0,VALID,100,VALID,-0.0679233,VALID,17.2244,VALID,164,VALID,0,
1999-11-10, 03:11:00,VALID,0,VALID,100,VALID,-0.0339617,VALID,17.3339,VALID,164,VALID,0,
1999-11-10, 03:12:00,VALID,0,VALID,100,VALID,-0.101885,VALID,17.3438,VALID,164,VALID,0,
1999-11-10, 03:13:00,VALID,0,VALID,100,VALID,-0.0509425,VALID,17.3082,VALID,164,VALID,0,
1999-11-10, 03:14:00,VALID,0,VALID,100,VALID,-0.101885,VALID,17.2598,VALID,164,VALID,0,
1999-11-10, 03:15:00,VALID,0,VALID,100,VALID,-0.0509425,VALID,17.2367,VALID,164,VALID,0,
1999-11-10, 03:16:00,VALID,0,VALID,100,VALID,-0.0509425,VALID,17.2692,VALID,164,VALID,0,
1999-11-10, 03:17:00,VALID,0,VALID,100,VALID,-0.101885,VALID,17.3371,VALID,164,VALID,0,
1999-11-10, 03:18:00,VALID,0,VALID,100,VALID,-0.0849042,VALID,17.4377,VALID,164,VALID,0,
1999-11-10, 03:19:00,VALID,0,VALID,100,VALID,-0.0849042,VALID,17.4604,VALID,164,VALID,0,
1999-11-10, 03:20:01,VALID,0,VALID,100,VALID,-0.0509425,VALID,17.3824,VALID,169,VALID,0,
1999-11-10, 03:21:01,VALID,0,VALID,100,VALID,-0.0679233,VALID,17.2533,VALID,172,VALID,0,
1999-11-10, 03:22:00,VALID,0,VALID,100,VALID,-0.0849042,VALID,17.16,VALID,174,VALID,0,
1999-11-10, 03:23:00,VALID,0,VALID,100,VALID,-0.0679233,VALID,17.0824,VALID,176,VALID,0,
1999-11-10, 03:24:00,VALID,0,VALID,100,VALID,-0.0849042,VALID,17.0857,VALID,179,VALID,0,
1999-11-10, 03:25:00,VALID,0,VALID,100,VALID,-0.0679233,VALID,17.0913,VALID,202,VALID,0,
1999-11-10, 03:26:00,VALID,0,VALID,100,VALID,-0.0509425,VALID,17.1467,VALID,214,VALID,0,
1999-11-10, 03:27:00,VALID,0,VALID,100,VALID,-0.0679233,VALID,17.0887,VALID,219,VALID,0,
1999-11-10, 03:28:00,VALID,0,VALID,100,VALID,-0.0679233,VALID,16.9752,VALID,225,VALID,0,
1999-11-10, 03:29:00,VALID,0,VALID,100,VALID,-0.0849042,VALID,16.9069,VALID,221,VALID,0.561266,
1999-11-10, 03:30:01,VALID,0,VALID,100,VALID,-0.0679233,VALID,16.8489,VALID,224,VALID,0.705078,
1999-11-10, 03:31:00,VALID,0,VALID,100,VALID,-0.101885,VALID,16.8496,VALID,223,VALID,0.557091,
1999-11-10, 03:32:01,VALID,0,VALID,100,VALID,-0.0679233,VALID,16.94,VALID,209,VALID,0.993627,
1999-11-10, 03:33:00,VALID,0,VALID,100,VALID,-0.0679233,VALID,17.0689,VALID,209,VALID,0.894631,
1999-11-10, 03:34:00,VALID,0,VALID,100,VALID,-0.0509425,VALID,17.1464,VALID,201,VALID,0.790329,
1999-11-10, 03:35:00,VALID,0,VALID,100,VALID,-0.0509425,VALID,17.1688,VALID,198,VALID,0.567568,
1999-11-10, 03:36:00,VALID,0,VALID,100,VALID,-0.0849042,VALID,17.1688,VALID,183,VALID,0.909128,
1999-11-10, 03:37:00,VALID,0,VALID,100,VALID,-0.0679233,VALID,17.2658,VALID,194,VALID,1.01758,
1999-11-10, 03:38:00,VALID,0,VALID,100,VALID,-0.0169808,VALID,17.2628,VALID,196,VALID,0.843304,
1999-11-10, 03:39:00,VALID,0,VALID,100,VALID,-0.0849042,VALID,17.2662,VALID,190,VALID,0.781661,
1999-11-10, 03:40:00,VALID,0,VALID,100,VALID,-0.0509425,VALID,17.3175,VALID,179,VALID,0.563867,
1999-11-10, 03:41:00,VALID,0,VALID,100,VALID,-0.101885,VALID,17.3274,VALID,174,VALID,0.583534,
1999-11-10, 03:42:00,VALID,0,VALID,100,VALID,-0.101885,VALID,17.2692,VALID,174,VALID,0.582648,
1999-11-10, 03:43:01,VALID,0,VALID,100,VALID,-0.0679233,VALID,17.2725,VALID,174,VALID,0.440505,
1999-11-10, 03:44:00,VALID,0,VALID,100,VALID,-0.0509425,VALID,17.224,VALID,174,VALID,0.180321,
1999-11-10, 03:45:00,VALID,0,VALID,99.9855,VALID,-0.0679233,VALID,16.9523,VALID,174,VALID,0.178843,
1999-11-10, 03:46:00,VALID,0,VALID,100,VALID,-0.101885,VALID,16.9495,VALID,174,VALID,0,
1999-11-10, 03:47:00,VALID,0,VALID,100,VALID,-0.0849042,VALID,17.1042,VALID,173,VALID,0,
1999-11-10, 03:48:00,VALID,0,VALID,100,VALID,-0.0679233,VALID,17.0264,VALID,161,VALID,0,
1999-11-10, 03:49:00,VALID,0,VALID,100,VALID,-0.0339617,VALID,16.9198,VALID,161,VALID,0,
1999-11-10, 03:50:00,VALID,0,VALID,100,VALID,0.0169808,VALID,16.9545,VALID,161,VALID,0,
1999-11-10, 03:51:00,VALID,0,VALID,100,VALID,0,VALID,17.0034,VALID,169,VALID,0,
1999-11-10, 03:52:00,VALID,0,VALID,100,VALID,0,VALID,16.9771,VALID,170,VALID,0,
1999-11-10, 03:53:00,VALID,0,VALID,100,VALID,0,VALID,16.9058,VALID,170,VALID,0,
1999-11-10, 03:54:00,VALID,0,VALID,100,VALID,0,VALID,16.8608,VALID,170,VALID,0,
1999-11-10, 03:55:00,VALID,0,VALID,100,VALID,-0.0169808,VALID,16.8188,VALID,170,VALID,0,
1999-11-10, 03:56:00,VALID,0,VALID,100,VALID,0,VALID,16.7863,VALID,170,VALID,0,
1999-11-10, 03:57:00,VALID,0,VALID,100,VALID,0,VALID,16.7673,VALID,170,VALID,0,
1999-11-10, 03:58:00,VALID,0,VALID,100,VALID,0,VALID,16.7574,VALID,170,VALID,0,
1999-11-10, 03:59:00,VALID,0,VALID,100,VALID,0.0169808,VALID,16.8026,VALID,170,VALID,0,
1999-11-10, 04:00:00,VALID,0,VALID,100,VALID,0,VALID,16.8125,VALID,170,VALID,0,
1999-11-10, 04:01:00,VALID,0,VALID,100,VALID,0,VALID,16.8192,VALID,173,VALID,0,
1999-11-10, 04:02:00,VALID,0,VALID,100,VALID,-0.0169808,VALID,16.7996,VALID,181,VALID,0,
1999-11-10, 04:03:00,VALID,0,VALID,100,VALID,0.0169808,VALID,16.8028,VALID,181,VALID,0,
1999-11-10, 04:04:00,VALID,0,VALID,100,VALID,0,VALID,16.7994,VALID,182,VALID,0,
1999-11-10, 04:05:00,VALID,0,VALID,100,VALID,-0.0339617,VALID,16.7774,VALID,196,VALID,0,
1999-11-10, 04:06:00,VALID,0,VALID,100,VALID,-0.0169808,VALID,16.7738,VALID,200,VALID,0,
1999-11-10, 04:07:00,VALID,0,VALID,100,VALID,0,VALID,16.8446,VALID,204,VALID,0,
1999-11-10, 04:08:00,VALID,0,VALID,100,VALID,0,VALID,16.984,VALID,207,VALID,0,
1999-11-10, 04:09:00,VALID,0,VALID,100,VALID,-0.0169808,VALID,17.0262,VALID,210,VALID,0,
1999-11-10, 04:10:00,VALID,0,VALID,100,VALID,0.0339617,VALID,17.0297,VALID,203,VALID,0,
1999-11-10, 04:11:00,VALID,0,VALID,100,VALID,0,VALID,17.0066,VALID,205,VALID,0,
1999-11-10, 04:12:00,VALID,0,VALID,100,VALID,0,VALID,16.9844,VALID,209,VALID,0,
1999-11-10, 04:13:00,VALID,0,VALID,100,VALID,-0.0169808,VALID,16.9452,VALID,209,VALID,0,
1999-11-10, 04:14:00,VALID,0,VALID,100,VALID,0,VALID,16.9226,VALID,209,VALID,0,
1999-11-10, 04:15:01,VALID,0,VALID,100,VALID,0,VALID,16.8866,VALID,209,VALID,0,
1999-11-10, 04:16:00,VALID,0,VALID,100,VALID,0,VALID,16.8582,VALID,209,VALID,0,
1999-11-10, 04:17:00,VALID,0,VALID,100,VALID,0,VALID,16.8224,VALID,209,VALID,0,
1999-11-10, 04:18:00,VALID,0,VALID,100,VALID,0,VALID,16.8031,VALID,215,VALID,0.186161,
1999-11-10, 04:19:00,VALID,0,VALID,100,VALID,-0.0849042,VALID,16.7679,VALID,219,VALID,0.708676,
1999-11-10, 04:20:00,VALID,0,VALID,100,VALID,-0.101885,VALID,16.7427,VALID,208,VALID,0.681055,
1999-11-10, 04:21:00,VALID,0,VALID,100,VALID,-0.0679233,VALID,16.8237,VALID,212,VALID,0.840345,